SCP
0 0 0 0 0 0 0 0 0 -0 0 0 0 0 0 -0 -0 -0 0 0 -0 -0 -0 -0 -0 -0 -0 -0 -0 -0 -0 -0 -0 -0 -0 0 0 0 0 0 0 0 0 0 0 0 0 0 0
0 0 0 0 0 0 0 -0 0 -0 0 0 0 0 0 0 0 -0 -0 -0 -0 -0 -0 -0 -0 -0 -0 -0 -0 -0 -0 0 0 0 0 0 0 0 0 0 0 0 0 0 0 0 0 0 0
0 0 0 0 0 0 0 0 0 0 0 0 0 0 0 0 0 -0 -0 -0 -0 -0 -0 -0 -0 -0 -0 -0 -0 0 0 0 0 0 0 0 0 0 0 0 0 0 0 0 0 0 0 0 -0
0 0 0 0 0 0 0 0 0 -0 0 0 0 0 0 0 -0 -0 -0 -0 -0 -0 -0 -0 -0 -0 -0 -0 -0 0 0 0 0 0 0 0 0 0 0 0 0 0 0 -0 0 0 0 -0 0
0 0 0 0 0 0 0 0 0 0 0 0 -0 0 0 -0 -0 -0 -0 -0 -0 -0 -0 -0 -0 -0 -0 -0 -0 0 0 0 0 0 0 0 0 0 0 0 0 0 -0 -0 -0 -0 -0 -0 0
0 0 0 0 0 0 0 0 0 0 0 -0 0 0 -0 0 -0 -0 -0 -0 -0 -0 -0 -0 -0 -0 -0 -0 0 0 0 0 0 0 0 0 0 0 0 0 0 0 0 0 -0 -0 -0 0 0
0 0 0 0 0 0 0 0 0 0 0 0 0 0 0 0 0 -0 -0 0 0 -0 -0 -0 -0 -0 -0 -0 0 0 0 0 0 0 0 0 0 0 0 0 -0 -0 -0 -0 -0 -0 -0 0 0
0 0 0 0 0 0 0 0 0 0 0 0 0 1 0 0 0 0 -0 0 0 -0 -0 -0 -0 0 0 0 0 0 0 0 0 0 -0 -0 -0 -0 -0 -0 0 -0 -0 -0 0 0 -0 -0 -0
0 0 0 0 0 0 0 0 0 0 0 0 0 0 0 0 0 0 -0 -0 0 -0 0 -0 -0 0 0 0 0 0 0 0 0 -0 -0 -0 -0 0 0 0 0 0 0 0 0 0 0 -0 -0
0 0 0 0 0 0 0 0 0 0 0 0 0 0 0 0 0 -0 -0 -0 -0 -0 -0 -0 -0 -0 0 0 0 0 0 -0 -0 -0 -0 -0 0 0 0 0 0 0 0 0 0 -0 0 -0 0
0 0 0 0 0 0 0 0 0 0 0 0 0 0 0 0 -0 -0 -0 -0 -0 -0 -0 -0 -0 -0 -0 0 -0 -0 -0 -0 -0 -0 -0 -0 0 0 0 0 0 0 0 0 0 0 0 0 0
0 0 0 0 0 0 0 0 0 0 0 0 0 0 0 -0 -0 -0 -0 -0 -0 -0 -0 -0 -0 0 -0 -0 -0 -0 -0 -0 -0 -0 -0 0 0 0 0 0 0 0 0 0 0 0 0 0 0
0 0 0 0 0 0 0 0 0 0 0 0 0 0 0 -0 -0 -0 -0 -0 -0 -0 0 0 0 0 -0 -0 -0 -0 -0 -0 -0 -0 -0 -0 0 0 0 0 0 0 0 0 0 0 0 0 0
0 0 0 0 0 0 0 0 1 0 0 0 0 0 -0 -0 -0 -0 -0 -0 0 0 0 0 0 0 -0 -0 -0 -0 -0 -0 -0 0 0 0 0 0 0 0 0 0 0 0 0 0 0 0 0
0 0 0 0 0 0 0 0 0 0 0 0 0 0 -0 -0 -0 -0 -0 -0 0 0 0 0 0 0 0 -0 -0 0 0 0 0 0 0 0 0 0 0 0 0 0 0 0 0 0 0 0 0
0 0 0 0 0 0 0 0 0 0 1 0 0 0 -0 -0 -0 -0 -0 0 0 0 0 0 0 0 0 0 0 0 0 0 0 0 0 0 0 0 0 0 0 0 0 0 0 0 0 0 0
0 0 0 0 0 0 0 0 0 0 0 0 0 0 0 0 0 -0 0 0 0 0 0 0 0 0 0 0 0 0 0 0 0 0 0 0 0 0 0 0 0 0 0 0 0 0 0 0 0
0 0 0 0 0 0 0 0 0 0 -0 -0 0 0 0 0 0 0 0 0 0 0 0 0 0 0 0 0 0 0 0 0 0 0 0 0 0 0 0 0 0 0 0 0 0 0 0 0 0
0 0 0 0 0 0 0 0 0 0 0 0 -0 0 0 0 0 0 0 0 0 0 0 0 0 0 0 0 0 0 0 0 0 0 0 0 0 0 0 0 0 0 0 0 0 0 0 0 0
-0 0 0 0 0 -0 0 0 0 0 0 0 -0 -0 -0 0 0 0 0 0 0 0 0 0 0 0 0 0 0 0 0 0 0 0 0 0 0 0 0 0 0 0 0 0 0 0 0 0 0
-0 0 0 0 0 0 0 0 0 0 0 0 0 0 0 0 0 0 0 -0 0 0 -0 0 0 0 0 0 0 0 0 0 0 0 0 0 0 0 0 0 0 0 0 0 0 0 0 0 0
0 -0 -0 0 0 0 0 0 0 0 0 0 0 0 0 0 0 0 0 0 0 0 0 -0 0 0 0 0 0 0 0 0 0 0 0 0 0 0 0 0 0 0 0 0 0 0 0 0 0
-0 -0 -0 -0 0 0 0 0 0 0 0 0 0 0 0 0 0 0 0 0 0 0 0 0 0 0 0 0 0 0 0 0 0 0 0 0 0 0 0 0 0 0 0 0 0 0 0 0 0
0 -0 -0 -0 0 0 0 0 0 0 0 0 0 0 0 0 0 0 0 0 0 0 0 0 0 0 0 0 0 0 0 0 0 0 0 0 0 0 0 0 0 0 0 0 0 0 0 0 0
0 0 0 0 0 0 0 0 0 0 0 0 0 0 0 0 -0 0 0 0 0 0 0 0 0 0 0 0 0 0 0 0 0 0 0 0 0 0 0 0 0 0 0 0 0 0 0 0 0
-0 -0 -0 0 0 0 0 0 0 0 0 -0 -0 -0 -0 0 0 -0 0 0 0 1 0 0 0 0 0 0 0 0 0 0 0 0 0 0 0 0 0 0 0 0 0 0 0 0 0 0 0
0 0 0 0 0 0 0 0 0 0 0 0 0 0 0 -0 0 0 0 0 0 0 0 0 0 0 0 0 0 0 0 0 0 0 0 0 0 0 0 0 0 0 0 0 0 0 0 0 0
0 0 0 0 0 0 0 0 0 0 0 0 0 0 0 -0 -0 0 0 0 0 0 0 0 0 0 0 0 0 0 0 0 0 0 0 0 0 0 0 0 0 0 0 0 0 0 0 0 0
0 0 0 0 0 0 0 0 0 0 0 0 -0 -0 -0 -0 -0 0 0 0 0 0 0 -0 -0 -0 -0 0 0 0 0 0 0 0 0 0 0 0 0 0 0 0 0 0 0 0 0 0 0
0 0 0 0 0 0 0 0 0 0 0 0 -0 -0 -0 -0 0 0 0 0 0 0 0 0 0 0 0 0 0 0 0 0 0 0 0 0 0 0 0 0 0 0 0 0 0 0 0 0 0
Wind_Speed_500mb
12 11 3 2 4 7 7 7 5 4 4 2 7 5 5 3 7 9 20 62 51 58 59 56 50 45 47 50 51 52 54 56 56 57 54 48 44 41 38 37 36 36 36 35 34 32 30 30 31
15 11 5 4 7 3 11 3 9 3 7 3 15 12 14 4 9 5 51 56 53 59 59 57 53 50 51 51 51 54 57 57 55 52 48 44 41 40 37 35 35 34 33 32 32 32 32 31 30
14 13 6 7 6 9 9 7 12 10 20 8 11 6 5 7 11 32 32 58 61 60 59 58 54 53 52 53 53 54 57 54 52 48 44 41 39 37 35 33 32 31 31 31 32 32 32 30 27
13 11 4 7 12 11 9 7 14 19 11 8 7 8 5 16 20 35 51 56 64 61 60 58 55 55 53 52 54 56 56 52 48 44 41 38 36 34 32 31 29 27 28 30 34 33 29 26 22
21 4 2 4 9 8 12 6 31 4 4 6 17 7 7 7 10 23 54 63 63 64 62 60 58 57 54 53 55 55 54 51 46 40 38 35 32 32 29 28 26 23 24 27 29 28 26 20 16
13 5 3 11 8 7 7 10 10 5 16 14 3 9 2 11 19 29 54 63 62 63 62 62 61 58 54 54 55 55 52 49 44 39 35 31 30 30 28 26 25 23 23 22 23 23 23 19 15
12 9 10 6 7 7 7 16 9 10 15 12 12 16 14 8 19 43 53 61 61 62 64 64 63 58 54 55 56 54 51 46 41 36 31 29 28 28 27 27 26 26 25 24 22 23 21 18 15
12 8 8 7 10 10 6 25 8 8 4 18 1 6 12 22 31 52 55 61 61 61 63 66 66 62 58 55 54 52 49 44 39 34 31 28 27 27 28 27 27 27 25 23 22 22 21 13 10
13 4 5 10 12 8 11 8 5 8 12 19 14 8 19 24 32 49 63 66 64 66 66 67 67 63 58 54 52 50 47 43 39 36 33 31 27 30 27 25 25 25 22 20 17 17 18 16 16
10 8 16 15 13 9 18 21 27 13 19 14 26 20 28 29 45 61 73 73 73 72 71 70 68 63 59 54 52 50 48 46 42 39 38 36 34 33 29 29 26 28 24 19 12 10 13 13 9
10 10 13 23 40 32 22 14 29 29 15 38 59 45 63 62 77 92 87 75 78 74 74 73 70 66 63 58 53 51 49 46 44 43 40 38 37 34 30 24 23 24 22 18 14 10 12 9 4
7 20 17 39 51 15 11 12 15 43 32 48 58 63 57 82 83 92 92 81 73 79 74 74 73 69 65 60 56 52 50 48 47 47 42 38 37 35 33 28 28 30 29 24 19 19 13 9 8
10 11 22 42 54 44 22 32 19 48 48 43 43 46 63 75 98 95 95 78 73 74 75 78 74 71 67 62 57 53 50 49 46 49 45 39 37 38 34 30 37 31 27 27 22 18 16 12 15
14 17 25 21 32 12 23 5 16 40 43 41 56 53 72 88 92 96 106 91 84 70 72 78 75 71 67 63 59 55 52 49 50 48 47 47 39 36 35 32 34 27 25 25 21 21 21 21 22
10 7 10 11 5 5 40 5 18 39 52 59 65 69 75 88 76 106 107 101 86 72 65 81 77 72 68 61 53 57 55 56 55 54 52 48 43 37 35 31 31 32 32 29 27 30 32 28 21
6 7 5 8 9 22 18 15 34 40 58 60 79 80 77 83 85 99 108 103 91 75 75 77 77 76 72 63 53 57 62 62 60 57 53 46 41 43 43 37 35 35 34 34 34 32 28 22 20
14 7 9 16 10 4 6 16 12 56 61 61 61 66 69 70 79 97 110 107 99 87 74 82 82 80 75 68 63 60 64 62 64 61 58 51 47 44 45 47 46 44 44 42 38 35 29 25 22
7 7 8 12 8 11 7 13 10 61 55 64 68 68 58 85 93 91 99 106 97 89 79 85 82 76 73 74 75 65 65 70 69 65 63 59 52 47 45 45 50 49 43 38 35 33 29 24 22
6 6 7 25 23 9 17 12 20 45 45 44 46 31 48 61 76 77 90 98 101 94 89 93 86 86 85 80 76 74 70 70 68 66 64 59 53 50 49 49 49 46 42 38 33 32 28 20 19
11 7 10 18 17 12 8 35 46 33 25 9 28 38 40 35 55 88 91 100 104 115 105 99 96 99 97 86 82 79 77 74 71 68 62 56 51 46 42 43 45 43 38 34 31 34 30 20 24
5 11 11 14 15 8 5 13 25 21 49 51 50 49 32 34 46 48 69 108 105 115 113 108 111 108 104 105 91 84 80 76 70 62 55 48 44 42 40 39 39 39 38 37 35 31 28 26 32
5 7 14 18 5 2 9 8 12 18 26 27 37 40 45 51 36 40 33 40 36 64 110 114 120 116 108 103 98 93 92 82 72 61 50 44 41 40 37 37 36 35 31 29 29 27 27 29 32
12 22 13 6 5 10 22 11 9 11 21 33 44 46 43 52 44 41 34 22 28 44 76 105 115 113 105 98 93 92 85 76 65 53 46 41 36 34 32 30 30 28 27 27 24 24 26 31 32
20 9 3 7 3 7 9 7 9 8 11 23 42 48 48 55 62 53 71 99 95 60 66 82 98 104 102 98 93 92 86 78 68 57 47 36 26 18 17 21 22 21 19 21 23 23 25 26 27
20 14 10 11 9 5 7 10 2 14 11 11 23 52 54 48 58 59 39 72 69 102 93 84 87 94 93 91 90 84 76 68 64 61 49 34 24 14 16 19 20 21 20 20 21 24 23 21 21
10 7 7 4 5 9 13 6 2 6 11 20 15 32 40 50 48 37 20 20 74 64 67 79 80 92 80 78 80 76 75 72 68 55 42 28 19 17 18 19 17 16 15 16 20 23 22 18 15
14 9 4 5 4 5 4 7 16 19 14 27 32 37 39 39 39 30 6 7 7 31 55 69 45 50 62 42 23 70 69 64 58 56 38 31 23 23 17 13 16 19 19 19 19 20 21 18 15
10 6 9 8 6 7 7 2 8 22 28 29 33 40 37 33 29 22 15 10 21 42 43 40 45 43 39 33 34 18 32 45 46 35 39 29 24 14 9 11 16 19 19 21 22 22 22 17 17
10 9 8 5 7 5 4 9 2 9 12 22 32 41 29 28 22 19 19 31 45 20 28 30 42 40 22 19 5 6 10 14 19 30 31 25 18 12 10 15 20 23 21 22 22 22 21 19 18
8 3 4 7 10 4 2 7 10 7 14 24 28 36 28 20 15 11 18 26 37 21 17 9 14 10 14 15 21 24 24 28 32 29 29 24 18 13 14 17 23 23 24 22 19 21 20 18 18
Wind_Direction_500mb
244 262 244 169 49 56 263 247 93 207 123 31 327 173 214 44 240 259 151 164 167 167 162 166 166 163 160 155 151 148 145 142 138 136 136 134 132 129 125 120 115 111 109 108 108 110 115 124 116
218 233 241 147 96 94 281 226 86 79 171 145 79 5 54 285 323 189 153 162 169 167 162 166 166 164 161 157 154 151 147 145 142 140 138 135 132 128 124 119 115 115 113 110 109 109 115 119 116
204 218 224 125 130 181 226 258 123 105 84 102 116 26 21 306 324 174 171 163 172 168 162 165 167 166 164 160 157 154 151 148 144 141 138 134 133 129 125 121 119 119 114 108 108 110 116 119 117
215 184 171 117 216 243 220 223 161 165 119 84 116 96 18 347 305 180 176 169 173 167 163 166 168 167 164 161 160 157 154 152 149 144 138 135 132 131 130 127 125 122 115 110 112 112 119 125 127
198 195 122 245 232 245 250 237 170 195 108 224 137 99 36 31 171 197 182 176 174 166 166 167 171 170 166 163 162 160 159 157 154 148 142 139 136 135 134 131 128 124 119 117 119 122 128 131 130
181 135 112 225 233 237 275 192 132 121 183 169 162 157 334 289 244 200 181 178 175 169 169 170 172 172 169 167 165 163 163 161 159 154 149 146 141 138 135 132 129 128 128 127 125 123 124 122 121
154 108 212 182 202 261 222 195 190 183 160 268 177 125 60 296 241 198 185 185 179 174 172 173 174 173 172 171 168 167 166 166 164 159 154 149 145 141 136 131 127 125 127 127 124 119 116 101 101
203 115 167 196 184 257 203 179 176 130 94 135 130 5 94 21 200 192 190 190 183 178 179 177 177 176 175 174 173 171 171 170 169 164 159 154 147 142 135 128 125 123 122 119 117 115 107 101 101
190 91 184 202 165 224 201 172 167 135 132 86 97 71 72 8 219 202 192 191 185 184 183 183 181 180 178 176 176 176 175 174 172 167 161 155 148 144 138 138 134 130 129 128 120 117 108 116 95
157 138 203 195 190 225 203 207 163 144 143 122 117 148 137 288 210 217 203 192 190 188 187 188 186 183 181 181 180 178 178 176 173 169 161 157 148 140 137 136 133 136 138 138 136 131 134 141 114
183 194 208 251 236 231 230 204 193 163 197 182 166 160 174 203 216 208 207 199 195 191 190 191 190 186 184 185 182 180 180 177 176 173 170 166 165 159 154 154 152 154 169 175 171 158 161 163 166
179 233 217 268 272 228 201 199 189 190 226 208 204 178 155 191 203 209 208 202 196 196 194 194 193 190 188 186 184 183 183 182 181 178 179 180 179 179 175 175 181 186 187 194 195 195 207 217 254
186 257 266 272 273 264 208 194 210 219 233 215 205 206 200 207 202 205 212 205 205 200 201 196 194 194 191 191 189 187 188 187 187 188 190 193 195 195 193 192 197 201 202 207 211 216 225 245 264
213 241 270 280 264 215 153 200 170 232 220 214 215 205 192 197 195 201 206 204 209 205 205 200 197 196 195 193 194 192 192 191 191 196 201 204 207 209 210 205 205 209 209 216 236 251 262 277 277
257 270 292 236 234 171 119 358 233 234 201 198 211 207 200 200 200 204 207 206 206 207 205 202 200 197 197 192 192 196 195 192 192 199 206 209 215 221 223 218 215 216 225 237 252 261 269 277 273
315 57 30 257 301 166 159 245 236 227 191 201 202 207 211 211 209 206 209 205 206 208 209 201 199 195 193 191 190 191 195 198 200 206 210 209 215 221 224 225 227 230 237 247 260 267 268 268 272
6 256 266 314 210 347 177 271 247 202 193 198 202 202 212 214 215 209 212 209 208 207 207 201 196 195 194 198 200 201 202 205 207 212 218 216 218 224 230 236 239 240 244 251 256 259 258 263 266
276 329 314 273 350 13 304 276 214 194 203 209 208 214 222 218 212 213 209 211 213 210 210 206 200 197 198 202 206 212 211 216 217 218 218 218 222 229 237 243 243 242 244 245 248 250 257 261 256
252 246 320 299 287 278 272 275 210 200 220 235 240 250 233 214 215 216 214 214 216 213 209 205 204 200 198 201 203 202 203 202 205 208 211 218 228 236 243 243 238 239 240 242 248 259 261 253 233
46 27 327 292 292 169 3 39 54 42 341 294 5 323 293 280 243 217 212 213 214 213 212 207 205 201 204 206 206 205 199 198 203 207 214 222 232 238 236 234 234 236 241 244 248 259 258 235 205
21 33 310 259 309 47 61 65 25 30 39 44 25 9 339 310 266 242 225 215 218 214 209 208 205 204 209 211 208 204 203 203 203 207 213 218 226 233 235 236 237 239 242 250 254 255 247 228 198
307 304 274 292 342 26 344 178 22 350 26 29 13 5 1 358 298 257 290 267 251 223 211 208 207 205 209 210 212 214 212 210 211 212 213 222 229 234 239 243 244 246 247 251 251 247 235 222 207
260 308 266 260 248 99 345 76 298 346 358 360 355 352 0 1 356 312 264 245 276 226 211 212 209 206 207 210 214 216 214 214 213 207 214 222 227 235 243 248 252 255 247 243 239 234 224 216 210
309 327 31 65 40 78 280 126 318 11 345 326 338 347 351 4 3 338 227 229 240 233 225 214 210 207 208 209 210 214 214 213 209 206 205 206 215 217 244 243 240 237 233 228 224 219 216 213 212
13 17 350 355 14 217 273 61 272 317 344 318 335 339 350 0 16 10 217 209 224 225 221 222 214 207 203 206 207 210 209 214 217 215 212 206 205 222 225 223 226 228 220 212 208 207 211 210 212
332 78 117 293 321 302 316 136 173 339 336 9 6 358 6 8 19 21 50 216 228 229 228 221 213 206 206 209 207 206 204 207 208 204 189 175 187 209 209 206 204 200 191 188 190 198 199 199 199
318 16 253 120 23 47 293 61 226 7 346 2 14 7 9 14 15 21 14 53 126 140 178 185 181 189 190 175 175 190 194 194 188 174 166 180 182 184 184 186 191 184 176 172 172 183 184 176 171
81 282 18 10 353 327 323 168 267 340 339 342 358 360 3 3 9 16 51 152 69 99 101 93 90 41 42 57 50 59 147 148 159 146 154 158 160 159 168 184 183 178 171 171 171 172 168 180 165
358 14 25 115 147 184 274 265 184 329 336 331 341 353 358 351 14 43 86 115 123 131 99 73 44 21 337 14 90 1 148 129 139 159 143 152 148 157 179 181 178 167 158 162 163 159 156 169 165
126 102 80 111 299 280 202 285 42 56 348 345 347 358 8 10 8 61 117 127 128 138 139 131 7 17 180 153 152 143 127 131 146 156 155 153 155 162 182 182 179 164 162 150 156 151 145 145 142
Wind_Speed_850mb
12 11 3 2 4 7 7 7 5 4 4 2 7 5 5 3 7 9 20 62 51 58 59 56 50 45 47 50 51 52 54 56 56 57 54 48 44 41 38 37 36 36 36 35 34 32 30 30 31
15 11 5 4 7 3 11 3 9 3 7 3 15 12 14 4 9 5 51 56 53 59 59 57 53 50 51 51 51 54 57 57 55 52 48 44 41 40 37 35 35 34 33 32 32 32 32 31 30
14 13 6 7 6 9 9 7 12 10 20 8 11 6 5 7 11 32 32 58 61 60 59 58 54 53 52 53 53 54 57 54 52 48 44 41 39 37 35 33 32 31 31 31 32 32 32 30 27
13 11 4 7 12 11 9 7 14 19 11 8 7 8 5 16 20 35 51 56 64 61 60 58 55 55 53 52 54 56 56 52 48 44 41 38 36 34 32 31 29 27 28 30 34 33 29 26 22
21 4 2 4 9 8 12 6 31 4 4 6 17 7 7 7 10 23 54 63 63 64 62 60 58 57 54 53 55 55 54 51 46 40 38 35 32 32 29 28 26 23 24 27 29 28 26 20 16
13 5 3 11 8 7 7 10 10 5 16 14 3 9 2 11 19 29 54 63 62 63 62 62 61 58 54 54 55 55 52 49 44 39 35 31 30 30 28 26 25 23 23 22 23 23 23 19 15
12 9 10 6 7 7 7 16 9 10 15 12 12 16 14 8 19 43 53 61 61 62 64 64 63 58 54 55 56 54 51 46 41 36 31 29 28 28 27 27 26 26 25 24 22 23 21 18 15
12 8 8 7 10 10 6 25 8 8 4 18 1 6 12 22 31 52 55 61 61 61 63 66 66 62 58 55 54 52 49 44 39 34 31 28 27 27 28 27 27 27 25 23 22 22 21 13 10
13 4 5 10 12 8 11 8 5 8 12 19 14 8 19 24 32 49 63 66 64 66 66 67 67 63 58 54 52 50 47 43 39 36 33 31 27 30 27 25 25 25 22 20 17 17 18 16 16
10 8 16 15 13 9 18 21 27 13 19 14 26 20 28 29 45 61 73 73 73 72 71 70 68 63 59 54 52 50 48 46 42 39 38 36 34 33 29 29 26 28 24 19 12 10 13 13 9
10 10 13 23 40 32 22 14 29 29 15 38 59 45 63 62 77 92 87 75 78 74 74 73 70 66 63 58 53 51 49 46 44 43 40 38 37 34 30 24 23 24 22 18 14 10 12 9 4
7 20 17 39 51 15 11 12 15 43 32 48 58 63 57 82 83 92 92 81 73 79 74 74 73 69 65 60 56 52 50 48 47 47 42 38 37 35 33 28 28 30 29 24 19 19 13 9 8
10 11 22 42 54 44 22 32 19 48 48 43 43 46 63 75 98 95 95 78 73 74 75 78 74 71 67 62 57 53 50 49 46 49 45 39 37 38 34 30 37 31 27 27 22 18 16 12 15
14 17 25 21 32 12 23 5 16 40 43 41 56 53 72 88 92 96 106 91 84 70 72 78 75 71 67 63 59 55 52 49 50 48 47 47 39 36 35 32 34 27 25 25 21 21 21 21 22
10 7 10 11 5 5 40 5 18 39 52 59 65 69 75 88 76 106 107 101 86 72 65 81 77 72 68 61 53 57 55 56 55 54 52 48 43 37 35 31 31 32 32 29 27 30 32 28 21
6 7 5 8 9 22 18 15 34 40 58 60 79 80 77 83 85 99 108 103 91 75 75 77 77 76 72 63 53 57 62 62 60 57 53 46 41 43 43 37 35 35 34 34 34 32 28 22 20
14 7 9 16 10 4 6 16 12 56 61 61 61 66 69 70 79 97 110 107 99 87 74 82 82 80 75 68 63 60 64 62 64 61 58 51 47 44 45 47 46 44 44 42 38 35 29 25 22
7 7 8 12 8 11 7 13 10 61 55 64 68 68 58 85 93 91 99 106 97 89 79 85 82 76 73 74 75 65 65 70 69 65 63 59 52 47 45 45 50 49 43 38 35 33 29 24 22
6 6 7 25 23 9 17 12 20 45 45 44 46 31 48 61 76 77 90 98 101 94 89 93 86 86 85 80 76 74 70 70 68 66 64 59 53 50 49 49 49 46 42 38 33 32 28 20 19
11 7 10 18 17 12 8 35 46 33 25 9 28 38 40 35 55 88 91 100 104 115 105 99 96 99 97 86 82 79 77 74 71 68 62 56 51 46 42 43 45 43 38 34 31 34 30 20 24
5 11 11 14 15 8 5 13 25 21 49 51 50 49 32 34 46 48 69 108 105 115 113 108 111 108 104 105 91 84 80 76 70 62 55 48 44 42 40 39 39 39 38 37 35 31 28 26 32
5 7 14 18 5 2 9 8 12 18 26 27 37 40 45 51 36 40 33 40 36 64 110 114 120 116 108 103 98 93 92 82 72 61 50 44 41 40 37 37 36 35 31 29 29 27 27 29 32
12 22 13 6 5 10 22 11 9 11 21 33 44 46 43 52 44 41 34 22 28 44 76 105 115 113 105 98 93 92 85 76 65 53 46 41 36 34 32 30 30 28 27 27 24 24 26 31 32
20 9 3 7 3 7 9 7 9 8 11 23 42 48 48 55 62 53 71 99 95 60 66 82 98 104 102 98 93 92 86 78 68 57 47 36 26 18 17 21 22 21 19 21 23 23 25 26 27
20 14 10 11 9 5 7 10 2 14 11 11 23 52 54 48 58 59 39 72 69 102 93 84 87 94 93 91 90 84 76 68 64 61 49 34 24 14 16 19 20 21 20 20 21 24 23 21 21
10 7 7 4 5 9 13 6 2 6 11 20 15 32 40 50 48 37 20 20 74 64 67 79 80 92 80 78 80 76 75 72 68 55 42 28 19 17 18 19 17 16 15 16 20 23 22 18 15
14 9 4 5 4 5 4 7 16 19 14 27 32 37 39 39 39 30 6 7 7 31 55 69 45 50 62 42 23 70 69 64 58 56 38 31 23 23 17 13 16 19 19 19 19 20 21 18 15
10 6 9 8 6 7 7 2 8 22 28 29 33 40 37 33 29 22 15 10 21 42 43 40 45 43 39 33 34 18 32 45 46 35 39 29 24 14 9 11 16 19 19 21 22 22 22 17 17
10 9 8 5 7 5 4 9 2 9 12 22 32 41 29 28 22 19 19 31 45 20 28 30 42 40 22 19 5 6 10 14 19 30 31 25 18 12 10 15 20 23 21 22 22 22 21 19 18
8 3 4 7 10 4 2 7 10 7 14 24 28 36 28 20 15 11 18 26 37 21 17 9 14 10 14 15 21 24 24 28 32 29 29 24 18 13 14 17 23 23 24 22 19 21 20 18 18
Wind_Direction_850mb
244 262 244 169 49 56 263 247 93 207 123 31 327 173 214 44 240 259 151 164 167 167 162 166 166 163 160 155 151 148 145 142 138 136 136 134 132 129 125 120 115 111 109 108 108 110 115 124 116
218 233 241 147 96 94 281 226 86 79 171 145 79 5 54 285 323 189 153 162 169 167 162 166 166 164 161 157 154 151 147 145 142 140 138 135 132 128 124 119 115 115 113 110 109 109 115 119 116
204 218 224 125 130 181 226 258 123 105 84 102 116 26 21 306 324 174 171 163 172 168 162 165 167 166 164 160 157 154 151 148 144 141 138 134 133 129 125 121 119 119 114 108 108 110 116 119 117
215 184 171 117 216 243 220 223 161 165 119 84 116 96 18 347 305 180 176 169 173 167 163 166 168 167 164 161 160 157 154 152 149 144 138 135 132 131 130 127 125 122 115 110 112 112 119 125 127
198 195 122 245 232 245 250 237 170 195 108 224 137 99 36 31 171 197 182 176 174 166 166 167 171 170 166 163 162 160 159 157 154 148 142 139 136 135 134 131 128 124 119 117 119 122 128 131 130
181 135 112 225 233 237 275 192 132 121 183 169 162 157 334 289 244 200 181 178 175 169 169 170 172 172 169 167 165 163 163 161 159 154 149 146 141 138 135 132 129 128 128 127 125 123 124 122 121
154 108 212 182 202 261 222 195 190 183 160 268 177 125 60 296 241 198 185 185 179 174 172 173 174 173 172 171 168 167 166 166 164 159 154 149 145 141 136 131 127 125 127 127 124 119 116 101 101
203 115 167 196 184 257 203 179 176 130 94 135 130 5 94 21 200 192 190 190 183 178 179 177 177 176 175 174 173 171 171 170 169 164 159 154 147 142 135 128 125 123 122 119 117 115 107 101 101
190 91 184 202 165 224 201 172 167 135 132 86 97 71 72 8 219 202 192 191 185 184 183 183 181 180 178 176 176 176 175 174 172 167 161 155 148 144 138 138 134 130 129 128 120 117 108 116 95
157 138 203 195 190 225 203 207 163 144 143 122 117 148 137 288 210 217 203 192 190 188 187 188 186 183 181 181 180 178 178 176 173 169 161 157 148 140 137 136 133 136 138 138 136 131 134 141 114
183 194 208 251 236 231 230 204 193 163 197 182 166 160 174 203 216 208 207 199 195 191 190 191 190 186 184 185 182 180 180 177 176 173 170 166 165 159 154 154 152 154 169 175 171 158 161 163 166
179 233 217 268 272 228 201 199 189 190 226 208 204 178 155 191 203 209 208 202 196 196 194 194 193 190 188 186 184 183 183 182 181 178 179 180 179 179 175 175 181 186 187 194 195 195 207 217 254
186 257 266 272 273 264 208 194 210 219 233 215 205 206 200 207 202 205 212 205 205 200 201 196 194 194 191 191 189 187 188 187 187 188 190 193 195 195 193 192 197 201 202 207 211 216 225 245 264
213 241 270 280 264 215 153 200 170 232 220 214 215 205 192 197 195 201 206 204 209 205 205 200 197 196 195 193 194 192 192 191 191 196 201 204 207 209 210 205 205 209 209 216 236 251 262 277 277
257 270 292 236 234 171 119 358 233 234 201 198 211 207 200 200 200 204 207 206 206 207 205 202 200 197 197 192 192 196 195 192 192 199 206 209 215 221 223 218 215 216 225 237 252 261 269 277 273
315 57 30 257 301 166 159 245 236 227 191 201 202 207 211 211 209 206 209 205 206 208 209 201 199 195 193 191 190 191 195 198 200 206 210 209 215 221 224 225 227 230 237 247 260 267 268 268 272
6 256 266 314 210 347 177 271 247 202 193 198 202 202 212 214 215 209 212 209 208 207 207 201 196 195 194 198 200 201 202 205 207 212 218 216 218 224 230 236 239 240 244 251 256 259 258 263 266
276 329 314 273 350 13 304 276 214 194 203 209 208 214 222 218 212 213 209 211 213 210 210 206 200 197 198 202 206 212 211 216 217 218 218 218 222 229 237 243 243 242 244 245 248 250 257 261 256
252 246 320 299 287 278 272 275 210 200 220 235 240 250 233 214 215 216 214 214 216 213 209 205 204 200 198 201 203 202 203 202 205 208 211 218 228 236 243 243 238 239 240 242 248 259 261 253 233
46 27 327 292 292 169 3 39 54 42 341 294 5 323 293 280 243 217 212 213 214 213 212 207 205 201 204 206 206 205 199 198 203 207 214 222 232 238 236 234 234 236 241 244 248 259 258 235 205
21 33 310 259 309 47 61 65 25 30 39 44 25 9 339 310 266 242 225 215 218 214 209 208 205 204 209 211 208 204 203 203 203 207 213 218 226 233 235 236 237 239 242 250 254 255 247 228 198
307 304 274 292 342 26 344 178 22 350 26 29 13 5 1 358 298 257 290 267 251 223 211 208 207 205 209 210 212 214 212 210 211 212 213 222 229 234 239 243 244 246 247 251 251 247 235 222 207
260 308 266 260 248 99 345 76 298 346 358 360 355 352 0 1 356 312 264 245 276 226 211 212 209 206 207 210 214 216 214 214 213 207 214 222 227 235 243 248 252 255 247 243 239 234 224 216 210
309 327 31 65 40 78 280 126 318 11 345 326 338 347 351 4 3 338 227 229 240 233 225 214 210 207 208 209 210 214 214 213 209 206 205 206 215 217 244 243 240 237 233 228 224 219 216 213 212
13 17 350 355 14 217 273 61 272 317 344 318 335 339 350 0 16 10 217 209 224 225 221 222 214 207 203 206 207 210 209 214 217 215 212 206 205 222 225 223 226 228 220 212 208 207 211 210 212
332 78 117 293 321 302 316 136 173 339 336 9 6 358 6 8 19 21 50 216 228 229 228 221 213 206 206 209 207 206 204 207 208 204 189 175 187 209 209 206 204 200 191 188 190 198 199 199 199
318 16 253 120 23 47 293 61 226 7 346 2 14 7 9 14 15 21 14 53 126 140 178 185 181 189 190 175 175 190 194 194 188 174 166 180 182 184 184 186 191 184 176 172 172 183 184 176 171
81 282 18 10 353 327 323 168 267 340 339 342 358 360 3 3 9 16 51 152 69 99 101 93 90 41 42 57 50 59 147 148 159 146 154 158 160 159 168 184 183 178 171 171 171 172 168 180 165
358 14 25 115 147 184 274 265 184 329 336 331 341 353 358 351 14 43 86 115 123 131 99 73 44 21 337 14 90 1 148 129 139 159 143 152 148 157 179 181 178 167 158 162 163 159 156 169 165
126 102 80 111 299 280 202 285 42 56 348 345 347 358 8 10 8 61 117 127 128 138 139 131 7 17 180 153 152 143 127 131 146 156 155 153 155 162 182 182 179 164 162 150 156 151 145 145 142